[Iaude] MPEC H77: A/2010 L135N
    mpec at cfa.harvard.edu 
    mpec at cfa.harvard.edu
       
    Sat Apr 27 03:03:23 EDT 2024
    
    
  
M.P.E.C. 2024-H77                                Issued 2024 April 27, 06:57 UT
     The Minor Planet Electronic Circulars contain information on unusual
         minor planets, routine data on comets and natural satellites,
         and occasional editorial announcements.  They are published
    on behalf of Division F of the International Astronomical Union by the
          Minor Planet Center, Smithsonian Astrophysical Observatory,
                          Cambridge, MA 02138, U.S.A.
			  
             Prepared using the Tamkin Foundation Computer Network
                              MPC at CFA.HARVARD.EDU
            URL https://www.minorplanetcenter.net/    ISSN 1523-6714
                                  A/2010 L135N                                  
Observations:
    AK10LD5N ZC2010 06 03.53459 17 28 04.43 +52 20 12.4                VEH077F51
    AK10LD5N ZC2010 06 03.54665 17 28 03.78 +52 20 16.3          21.0 iVEH077F51
    AK10LD5N* C2010 06 04.29351 17 27 25.86 +52 24 12.3          21.0 rNEH077I41
    AK10LD5N  C2010 06 04.33753 17 27 23.55 +52 24 25.9          20.9 rNEH077I41
    AK10LD5N ZC2010 06 05.50273 17 26 23.28 +52 30 19.3          21.6 rVEH077F51
    AK10LD5N ZC2010 06 05.51510 17 26 22.62 +52 30 23.1          21.5 rVEH077F51
    AK10LD5N  C2010 06 09.18558 17 23 07.92 +52 46 45.4          20.6 rNEH077I41
    AK10LD5N  C2010 06 09.25005 17 23 04.36 +52 47 01.1          20.3 rNEH077I41
    AK10LD5N  C2010 06 09.31062 17 23 00.95 +52 47 15.6          20.2 rNEH077I41
    AK10LD5N  C2010 06 09.37477 17 22 57.44 +52 47 31.6          20.1 rNEH077I41
    AK10LD5N  C2010 06 09.43439 17 22 54.13 +52 47 45.4          20.4 rNEH077I41
    AK10LD5N ZC2010 06 15.34626 17 17 27.33 +53 06 45.7                VEH077F51
    AK10LD5N ZC2010 06 15.35743 17 17 26.69 +53 06 47.5          21.6 gVEH077F51
    AK10LD5N  C2010 06 15.40069 17 17 24.03 +53 06 52.2          20.5 rNEH077I41
    AK10LD5N  C2010 06 15.44926 17 17 21.34 +53 06 59.8          21.0 rNEH077I41
    AK10LD5N ZC2010 06 18.34701 17 14 38.18 +53 12 57.8          21.3 rVEH077F51
    AK10LD5N ZC2010 06 18.35903 17 14 37.47 +53 12 59.1          21.3 rVEH077F51
    AK10LD5N  C2010 06 20.43411 17 12 39.86 +53 15 52.1          20.2 rNEH077I41
    AK10LD5N  C2010 06 20.47766 17 12 37.36 +53 15 55.1          20.3 rNEH077I41
    AK10LD5N  C2010 07 06.38721 16 58 14.03 +53 00 43.6          20.3 rNEH077I41
    AK10LD5N  C2010 07 06.43150 16 58 11.78 +53 00 35.2          20.3 rNEH077I41
    AK10LD5N ZC2010 08 15.24810 16 40 15.96 +48 10 56.3          20.8 zVEH077F51
    AK10LD5N ZC2010 08 15.24858 16 40 15.95 +48 10 56.3          20.6 zVEH077F51
    AK10LD5N ZC2010 08 15.25878 16 40 15.93 +48 10 49.9          20.5 zVEH077F51
    AK10LD5N ZC2010 09 17.16040916 53 51.10 +41 33 09.7                VEH077703
    AK10LD5N ZC2010 09 17.16710416 53 51.54 +41 33 08.0                VEH077703
    AK10LD5N ZC2010 09 17.17380716 53 51.92 +41 32 58.7                VEH077703
    AK10LD5N ZC2010 09 17.18051816 53 51.98 +41 32 54.3                VEH077703
    AK10LD5N ZC2010 10 09.11755717 16 06.87 +36 45 24.9          20.1 VVEH077703
    AK10LD5N ZC2010 10 09.12267517 16 07.28 +36 45 22.8                VEH077703
    AK10LD5N ZC2010 10 09.12780817 16 07.55 +36 45 15.3                VEH077703
    AK10LD5N ZC2010 10 09.13291517 16 08.05 +36 45 14.4                VEH077703
    AK10LD5N ZC2010 10 19.11336117 29 15.58 +34 36 07.6          19.9 VVEH077703
    AK10LD5N ZC2010 10 19.12365917 29 16.37 +34 35 56.9                VEH077703
    AK10LD5N ZC2010 10 19.12883917 29 16.81 +34 35 54.6                VEH077703
Observer details:
703 Catalina Sky Survey.  Measurer S. Deen.  0.68-m Schmidt + 10K CCD.
F51 Pan-STARRS 1, Haleakala.  Measurers S. Deen, G. Lagann.  1.8-m
    Ritchey-Chretien + CCD.
I41 Palomar Mountain--ZTF.  Measurers A. Waszczak, E. O. Ofek.  1.2-m f/2.44
    Schmidt + 11 x CCD.
Orbital elements:
    A/2010 LN135                                                                
Epoch 2011 June 8.0 TT = JDT 2455720.5                                          
T 2011 May 22.67423 TT                                  Rudenko                 
q   1.7409037            (2000.0)            P               Q                  
z  -0.0006318      Peri.  181.55798     +0.99494566     -0.06417446             
 +/-0.0000242      Node   184.91516     +0.09909126     +0.75194637             
e   1.0010998      Incl.   64.34192     +0.01624954     -0.65609320             
H   14.0                                                                        
>From 35 observations 2010 June 3-Oct. 19, mean residual 0".8.                   
                                                                                
    A/2010 LN135                                                                
Epoch 2024 Mar. 31.0 TT = JDT 2460400.5                                         
T 2011 May 25.82902 TT                                  Rudenko                 
q   1.7386383            (2000.0)            P               Q                  
z  +0.0000713      Peri.  181.53747     +0.99525127     -0.06220837             
 +/-0.0000242      Node   184.75238     +0.09613646     +0.74872716             
e   0.9998760      Incl.   64.64164     +0.01525415     -0.65995285             
H   14.0                                                                        
>From 35 observations 2010 June 3-Oct. 19, mean residual 0".8.                   
                                                                                
Ephemeris:
Date    TT    R. A. (2000) Decl.     Delta      r    Elong.  Phase   m1    m2
2024 03 28    10 50 19.4 -19 30 43  28.3039 29.1816   151.1     0.9        28.7
...
2024 04 12    10 48 44.2 -19 12 58  28.4571 29.2470   141.4     1.2        28.8
...
2024 04 20    10 48 02.1 -19 03 07  28.5612 29.2819   135.1     1.4        28.8
...
2024 04 26    10 47 35.1 -18 55 44  28.6483 29.3080   130.2     1.5        28.8
2024 04 27    10 47 31.0 -18 54 30  28.6635 29.3124   129.4     1.5        28.8
2024 04 28    10 47 27.1 -18 53 16  28.6789 29.3167   128.5     1.5        28.8
...
2024 05 04    10 47 05.8 -18 46 00  28.7752 29.3428   123.4     1.6        28.8
...
2024 05 12    10 46 44.6 -18 36 34  28.9127 29.3777   116.5     1.8        28.9
...
2024 05 27    10 46 27.4 -18 20 19  29.1916 29.4429   103.4     1.9        28.9
M. P. C. Staff               (C) Copyright 2024 MPC           M.P.E.C. 2024-H77
    
    
More information about the Iaude
mailing list